Flag for Philippines Weather past 2 weeks in Olongapo, Philippines

Now
79 °F

Rain. Mostly cloudy.


Feels Like: 82 °F
Forecast: 76 / 84 °F
Wind: 7 mph from South

Location: Subic Bay Weather Station

Current Time: Sep 21, 2014 at 2:07:03 AM

Latest Report: Sep 20, 2014 at 9:00 PM


Visibility: 6 mi

Pressure: 29.77 "Hg

Humidity: 84%

Dew point: 73 °F

Location of OlongapoLocation

Historic Weather in Olongapo — Graph

°F

Olongapo temperature yesterday

Maximum temperature yesterday: 84 °F (at 11:00 AM)
Minimum temperature yesterday: 79 °F (at 7:00 PM)
Average temperature yesterday: 82 °F

Past Weeks' High & Low Weather Summary

 TemperatureHumidityPressure
High90 °F (Sep 17, 1:00 PM)100% (Sep 6, 3:00 PM)29.89 "Hg (Sep 6, 3:00 PM)
Low73 °F (Sep 15, 2:00 PM)55% (Sep 17, 11:00 AM)28.85 "Hg (Sep 14, 3:00 PM)
Average80 °F83%29.73 "Hg
* Reported Sep 5 9:00 PM — Sep 20 9:00 PM, Olongapo, Weather by CustomWeather, © 2014

Note: Actual official high and low records may vary slightly from our data, if they occured in-between our weather recording intervals... More about our weather records

Advertising

Olongapo weather history for previous 24 hours

 ConditionsComfort  
Time TempWeatherWind HumidityBarometerVisibility
9:00 PM
Sep 20
79 °FRain. Mostly cloudy.7 mph84%29.77 "Hg6 mi
8:00 PM82 °FLight rain. Mostly cloudy.15 mph84%29.77 "Hg4 mi
7:00 PM79 °FSprinkles. Mostly cloudy.16 mph84%29.74 "Hg6 mi
6:00 PM82 °FOvercast.17 mph84%29.74 "HgN/A
5:00 PM82 °FRain. Overcast.20 mph84%29.71 "Hg6 mi
4:00 PM84 °FRain. More clouds than sun.12 mph79%29.71 "Hg6 mi
3:00 PM84 °FRain. More clouds than sun.21 mph79%29.68 "Hg6 mi
2:00 PM84 °FRain. More clouds than sun.25 mph79%29.68 "Hg6 mi
1:00 PM84 °FMore clouds than sun.25 mph79%29.71 "HgN/A
12:00 PM84 °FMore clouds than sun.24 mph79%29.74 "HgN/A
11:00 AM84 °FRain. More clouds than sun.23 mph79%29.74 "HgN/A
10:00 AM82 °FMore clouds than sun.22 mph84%29.77 "HgN/A
9:00 AM82 °FRain. More clouds than sun.21 mph84%29.74 "HgN/A
8:00 AM82 °FRain. Overcast.23 mph84%29.71 "HgN/A
7:00 AM82 °FRain. More clouds than sun.22 mph84%29.68 "HgN/A
6:00 AM82 °FRain. Cloudy.23 mph84%29.68 "Hg6 mi
5:00 AM82 °FLight rain. Mostly cloudy.N/A84%29.65 "Hg6 mi
4:00 AM82 °FOvercast.26 mph84%29.65 "HgN/A
3:00 AM82 °FOvercast.22 mph79%29.65 "HgN/A
2:00 AM82 °FMostly cloudy.23 mph79%29.65 "Hg6 mi
Weather by CustomWeather, © 2014

See weather overviewHow to use our weather pages